Location: Deerlick Astronomy Village
(33.5614°N, 82.7631°W)
Time: 19:08:45
(UTC-04:00)

CAS-4A - Visible Passes

Search period start: 30 October 2020 00:00
Search period end: 08 November 2020 23:00
Orbit: 529 x 543 km, 43.0° (Epoch: 30 October)

Date Brightness Start Highest point End Pass type
(mag) Time Alt. Az. Time Alt. Az. Time Alt. Az.
30 Oct ? 05:07:20 11° NE 05:07:20 11° NE 05:07:33 10° NE visible
30 Oct ? 06:42:40 15° NW 06:45:21 30° NNE 06:48:58 10° E visible
31 Oct ? 06:32:50 21° NNW 06:34:58 35° NNE 06:38:43 10° E visible
01 Nov ? 05:23:01 28° NNW 05:24:35 41° NNE 05:28:26 10° E visible
02 Nov ? 05:13:16 41° NNW 05:14:10 49° NNE 05:18:07 10° E visible
03 Nov ? 05:03:35 60° NNE 05:03:44 61° NNE 05:07:46 10° ESE visible
04 Nov ? 04:53:57 59° E 04:53:57 59° E 04:57:21 10° ESE visible
05 Nov ? 04:44:24 36° SE 04:44:24 36° SE 04:46:53 10° ESE visible
05 Nov ? 06:20:33 10° WSW 06:22:30 13° SW 06:24:25 10° SSW visible
06 Nov ? 04:34:54 21° SE 04:34:54 21° SE 04:36:21 10° SE visible
07 Nov ? 04:25:29 12° SE 04:25:29 12° SE 04:25:45 10° SE visible
08 Nov ? 19:35:31 10° S 19:35:38 11° S 19:35:38 11° S visible
